This is the latest recevied weather packets stored in our database for station/object W4MSI. If no packets are shown the sender has not sent any weather packets the latest 10 day(s).
| Time | Temp. | Humidity | Pressure | Rain* | Wind** | Luminosity | Snow |
|---|---|---|---|---|---|---|---|
| 1777237011 | 26.11° C | 47% | 1011.8 hPa | 0 mm | - | 571 W/m² | - |
| 1777236709 | 26.11° C | 45% | 1012.1 hPa | 0 mm | - | 512 W/m² | - |
| 1777236409 | 25.56° C | 48% | 1012.1 hPa | 0 mm | - | 486 W/m² | - |
| 1777236105 | 25.56° C | 47% | 1012 hPa | 0 mm | - | 172 W/m² | - |
| 1777235802 | 25.56° C | 49% | 1012 hPa | 0 mm | - | 408 W/m² | - |
| 1777235499 | 25.56° C | 48% | 1012.3 hPa | 0 mm | - | 699 W/m² | - |
| 1777235195 | 25° C | 47% | 1012.5 hPa | 0 mm | - | 703 W/m² | - |
| 1777234891 | 25.56° C | 49% | 1012.4 hPa | 0 mm | - | 329 W/m² | - |
| 1777234587 | 25.56° C | 48% | 1012.6 hPa | 0 mm | - | 165 W/m² | - |
| 1777234287 | 25.56° C | 47% | 1012.6 hPa | 0 mm | - | 392 W/m² | - |
| 1777233984 | 25.56° C | 47% | 1012.5 hPa | 0 mm | - | 768 W/m² | - |
| 1777233681 | 25.56° C | 47% | 1012.6 hPa | 0 mm | - | 698 W/m² | - |
| 1777233381 | 25° C | 48% | 1012.6 hPa | 0 mm | - | 707 W/m² | - |
| 1777233076 | 25° C | 50% | 1012.5 hPa | 0 mm | - | 753 W/m² | - |
| 1777232773 | 25.56° C | 48% | 1012.7 hPa | 0 mm | - | 226 W/m² | - |
| 1777232471 | 25.56° C | 47% | 1012.7 hPa | 0 mm | - | 835 W/m² | - |
| 1777232168 | 26.11° C | 47% | 1012.9 hPa | 0 mm | - | 824 W/m² | - |
| 1777231865 | 26.11° C | 43% | 1012.9 hPa | 0 mm | - | 886 W/m² | - |
| 1777231561 | 25.56° C | 47% | 1012.8 hPa | 0 mm | - | 826 W/m² | - |
| 1777231258 | 26.11° C | 44% | 1012.8 hPa | 0 mm | - | 797 W/m² | - |
| 1777230954 | 25.56° C | 47% | 1012.6 hPa | 0 mm | - | 844 W/m² | - |
| 1777230650 | 25.56° C | 47% | 1012.8 hPa | 0 mm | - | 851 W/m² | - |
| 1777230345 | 25.56° C | 46% | 1012.8 hPa | 0 mm | - | 863 W/m² | - |
| 1777230042 | 25.56° C | 46% | 1012.8 hPa | 0 mm | - | 828 W/m² | - |
| 1777229739 | 25.56° C | 47% | 1012.9 hPa | 0 mm | - | 812 W/m² | - |
* Rain latest hour (hover to see other rain measurements)
** Current wind speed in m/s (hover to see current wind gust speed)